Location: *
(57.8420°S, 159.8600°W)
Time: 04:59:22
(UTC+00:00)

Cosmos 1125 Rocket - Pass Details

Date: 18 May 2021
Orbit: 758 x 779 km, 74.0° (Epoch: 20 June)

Event Time Altitude Azimuth Distance (km) Brightness Sun altitude
Rises 05:09:45 0° 213° (SSW) 3,309 7.2 -21.0°
Reaches altitude 10° 05:12:25 10° 203° (SSW) 2,377 6.3 -21.3°
Enters shadow 05:16:59 32° 146° (SE) 1,333 4.4 -21.9°
